Theta_e
323 325 327 327 326 326 329 329 329 329 329 328 327 327 325 324 319 316 316 318 319 326 326 321 323 326 325 326 330 329 328 322 323 326 324 322 320 315 313 310 310 310 308 307 307 307 307 306 306 308 310 309 309 307 306 305 303 302 302 303 302 302 303 302 301 300 301 301 300 298 298 299 299 298
322 322 325 328 328 328 328 328 329 329 329 328 328 328 329 328 322 320 316 316 322 323 327 326 324 325 324 329 330 329 326 318 326 327 324 321 319 312 311 309 309 309 308 308 306 304 304 304 306 308 309 308 306 305 304 303 302 302 302 302 302 301 301 301 300 300 300 299 299 298 298 298 298 298
321 321 321 325 328 329 327 327 329 328 329 328 328 328 329 328 326 323 322 316 321 326 322 325 328 327 329 330 329 327 324 322 325 324 323 322 315 311 311 309 309 309 308 307 304 303 303 303 303 305 306 306 304 303 303 304 302 302 302 302 302 301 301 300 300 300 300 299 298 298 297 298 298 298
319 319 320 321 324 329 329 328 328 328 329 329 328 328 328 327 328 327 324 320 318 325 327 326 327 329 328 328 326 321 323 322 319 322 321 318 312 314 313 309 308 308 306 305 304 303 303 302 302 302 303 303 302 302 303 302 302 303 302 302 301 301 300 299 299 299 299 298 298 297 297 297 298 297
316 317 317 318 320 323 326 327 326 325 326 329 329 327 326 326 327 326 324 320 319 322 327 326 327 328 329 325 322 319 320 315 310 312 313 314 314 312 310 309 306 305 304 303 303 302 302 302 302 301 302 301 300 301 302 302 302 302 302 300 300 301 300 299 298 298 298 297 297 296 297 297 297 297
313 314 315 316 318 320 320 325 325 325 325 325 327 327 326 324 325 327 323 321 319 318 323 323 326 325 327 324 320 318 316 309 308 309 310 312 312 312 307 306 306 303 304 302 302 302 302 301 301 301 300 299 300 301 301 301 300 300 300 299 299 300 299 299 298 297 297 297 297 296 296 296 296 297
310 311 313 314 316 320 319 320 323 325 324 324 324 325 326 325 325 326 325 322 319 318 319 324 324 323 324 323 318 318 316 309 309 308 308 308 308 307 306 305 305 302 301 301 301 301 301 301 300 300 300 299 299 299 299 299 298 298 297 297 297 297 297 297 297 296 295 295 296 296 295 295 296 297
308 309 310 312 315 317 317 319 319 320 324 324 323 324 326 326 325 325 325 324 321 320 318 323 322 321 321 323 319 317 314 308 307 307 307 307 306 306 305 304 303 301 301 300 301 301 301 300 300 299 299 300 299 299 299 298 297 296 296 295 295 295 295 295 294 295 294 294 295 295 294 295 296 297
306 307 308 310 313 314 315 316 318 319 319 322 324 324 325 326 326 325 324 324 322 320 318 319 321 320 319 320 318 314 309 306 307 307 305 304 303 303 303 303 302 300 301 301 301 300 300 300 299 299 299 299 298 298 298 297 296 296 296 296 295 295 294 294 294 294 294 294 293 293 294 295 296 297
306 306 307 309 311 312 313 315 316 318 319 320 324 325 325 325 325 324 324 324 322 321 319 319 317 320 316 316 313 310 308 305 304 304 305 303 302 300 299 300 300 301 301 301 300 299 299 299 299 299 299 298 297 297 297 296 296 296 296 296 295 295 294 294 294 293 293 293 293 293 293 294 295 297
305 306 306 307 309 311 312 314 315 316 318 319 320 323 323 323 324 321 322 322 322 321 319 320 318 317 317 316 310 310 308 306 304 302 301 299 300 299 298 297 299 300 300 300 299 299 298 299 298 298 298 298 297 297 296 296 296 296 295 295 295 295 294 294 294 294 293 293 293 293 293 293 294 295
304 305 306 307 308 309 311 313 315 316 316 317 318 320 323 324 323 322 321 321 321 321 320 318 318 317 316 316 311 310 306 303 302 302 300 297 296 297 298 297 297 298 298 297 297 298 298 297 297 297 297 297 296 296 296 296 296 295 295 294 294 294 294 294 294 294 293 293 293 293 293 293 292 293
304 305 306 306 307 309 309 307 307 308 309 315 316 317 319 321 322 320 321 321 320 319 319 318 318 317 315 314 308 305 304 302 301 302 301 298 297 297 296 296 297 297 295 295 294 294 295 294 295 294 294 295 296 296 296 296 296 295 294 294 294 294 294 294 294 294 293 293 293 293 293 292 292 292
304 305 305 307 307 306 305 304 302 301 301 302 307 312 314 315 319 320 320 320 320 319 317 316 315 313 313 310 308 306 305 305 303 300 300 296 296 295 294 294 295 297 295 293 292 293 295 294 293 292 292 295 295 295 295 294 295 295 294 294 294 294 294 294 294 293 293 293 293 293 293 292 292 292
301 303 305 306 306 306 305 305 301 300 300 300 300 301 303 306 312 314 318 318 319 317 318 319 317 314 313 310 309 306 305 305 302 300 300 298 296 294 292 290 294 297 295 293 292 292 294 293 291 291 291 293 295 294 294 294 295 295 294 294 294 294 294 294 294 293 293 293 293 292 292 292 292 292
300 301 302 304 306 307 307 308 308 305 302 300 300 299 299 300 299 301 310 315 317 318 317 318 318 316 311 310 308 306 305 304 302 301 300 298 296 295 294 293 291 295 296 292 291 292 294 294 293 291 291 293 294 293 294 294 295 294 294 294 293 293 294 293 293 293 293 293 292 292 292 292 292 291
299 300 300 301 303 306 306 308 308 309 309 304 301 301 301 301 300 298 297 301 314 320 319 319 319 318 315 311 309 308 306 305 303 302 300 300 298 297 296 296 294 294 295 293 292 291 292 293 292 291 292 293 294 293 294 294 294 294 294 294 293 293 293 293 293 293 292 292 292 292 292 291 291 291
299 299 299 299 300 302 304 305 308 309 309 310 310 309 308 310 309 302 300 298 297 306 318 319 318 320 319 313 312 310 307 305 303 302 301 301 299 298 298 299 296 295 296 293 293 292 292 293 293 291 292 294 295 294 294 295 294 294 294 293 293 293 293 293 292 292 292 292 292 291 291 291 291 291
298 299 299 299 299 300 301 303 304 307 309 310 311 312 312 312 312 312 312 311 308 306 312 318 321 322 321 317 315 313 309 307 306 305 304 303 302 301 301 299 297 295 296 296 296 292 292 293 292 292 294 296 295 295 295 295 294 294 293 293 292 292 292 292 292 292 292 291 291 291 291 291 291 290
297 298 298 298 298 299 300 299 297 298 301 304 306 309 312 313 314 315 311 308 309 312 313 314 318 322 323 313 314 311 310 309 308 306 306 305 303 300 297 294 294 294 296 298 296 295 291 293 292 292 296 296 293 292 293 294 294 293 293 292 292 292 292 292 292 291 291 291 291 291 291 291 290 290
297 297 297 298 298 298 299 297 295 295 296 301 303 305 307 311 314 314 318 308 303 303 304 306 307 308 308 304 302 301 301 305 307 307 304 302 302 298 294 293 293 293 295 297 298 296 291 293 293 293 296 294 290 290 290 291 293 293 292 292 292 292 292 291 291 291 291 291 291 291 290 291 290 291
296 297 298 299 298 297 298 296 294 294 296 299 301 303 305 307 310 313 309 306 301 300 301 302 305 305 303 302 301 300 300 300 303 305 304 302 303 299 296 292 293 294 295 296 301 297 292 293 294 294 294 291 292 291 290 290 291 292 292 292 292 291 291 291 291 291 291 291 291 291 291 291 291 290
296 296 297 298 297 297 297 294 294 294 296 298 300 302 305 306 308 311 308 307 306 307 307 307 308 304 303 305 305 304 299 299 302 308 306 305 302 299 297 294 293 292 293 296 300 297 293 292 294 294 292 290 292 292 291 289 289 289 290 290 290 291 291 291 291 291 291 291 291 291 291 291 291 290
294 295 296 296 294 292 293 293 293 293 293 296 298 300 302 306 307 312 310 310 310 309 310 310 309 307 305 306 305 304 302 302 306 305 304 305 305 302 298 296 294 293 293 296 299 297 295 295 293 295 294 290 287 290 291 289 289 288 288 289 288 290 291 291 291 291 291 291 291 291 291 291 291 289
293 294 295 296 295 293 292 292 292 293 293 294 297 298 298 301 304 304 311 306 302 307 304 303 303 302 302 303 303 303 303 303 304 303 303 305 306 303 299 296 297 296 295 297 298 299 295 296 295 294 293 293 292 290 290 290 290 289 289 289 288 289 289 289 290 289 291 291 291 291 291 291 292 291
293 294 295 295 295 293 292 292 292 292 293 293 296 297 295 295 295 302 308 307 305 303 302 301 300 300 301 301 302 302 302 302 302 303 303 303 304 304 302 300 298 294 293 297 296 300 296 295 295 292 294 293 293 291 289 290 291 291 291 291 291 291 291 289 289 289 290 290 290 290 290 291 291 292
293 294 295 296 295 293 292 292 292 292 292 293 295 294 293 293 294 296 306 302 304 302 301 300 299 298 299 300 300 300 300 299 300 300 301 301 301 300 299 300 301 297 297 297 299 301 299 296 296 293 293 293 291 290 290 290 290 292 292 292 293 294 292 291 290 290 291 292 292 292 291 291 291 291
293 293 295 295 294 293 293 292 292 292 292 294 293 293 293 293 294 301 304 302 302 298 298 298 298 298 299 298 299 299 299 298 298 297 297 298 298 297 297 297 297 297 297 298 299 301 300 296 295 295 296 294 291 290 289 292 292 292 291 294 294 294 294 294 292 292 292 292 292 292 290 289 291 291
293 293 293 293 293 293 293 293 293 293 293 292 293 293 293 295 299 302 304 303 301 299 296 297 298 297 298 298 298 298 297 294 294 293 293 294 295 295 296 295 295 297 298 299 300 300 299 299 295 295 295 295 293 293 292 290 291 291 291 291 290 292 292 294 293 291 291 290 290 289 289 290 289 291
291 291 292 292 292 292 293 295 295 296 297 294 292 292 294 298 302 303 303 301 300 299 297 295 295 295 295 295 296 295 294 293 292 292 292 292 292 293 293 293 293 295 297 298 299 299 297 297 296 296 295 294 294 293 291 290 289 288 289 289 290 290 291 291 291 291 290 289 288 290 290 290 291 291
292 291 292 293 293 293 294 293 293 294 295 296 296 295 297 301 304 302 302 301 301 298 296 293 293 293 293 293 292 292 292 290 291 291 291 291 291 291 292 291 289 288 291 294 295 295 295 295 296 296 293 292 292 291 291 292 288 288 289 290 289 285 289 291 291 290 289 289 289 288 290 290 290 291
295 294 292 292 293 295 295 296 296 297 297 296 295 297 299 302 299 299 297 297 299 296 295 293 292 290 291 291 291 290 290 289 289 290 290 290 289 289 289 287 286 287 289 291 293 294 292 295 294 294 294 291 289 291 290 289 288 289 289 290 290 290 290 289 290 289 290 289 288 288 290 289 288 289
294 293 293 292 293 293 292 292 292 292 293 293 296 299 300 298 297 296 296 295 293 292 291 290 289 289 290 289 289 288 288 288 288 289 289 289 288 288 289 287 286 286 287 288 289 291 292 292 292 293 292 292 292 292 289 285 288 289 289 289 289 289 290 289 289 288 289 288 287 287 287 289 290 289
291 291 290 291 291 292 291 291 289 289 289 291 292 293 293 294 295 294 293 292 291 290 290 290 289 289 288 288 288 288 287 287 288 288 288 288 288 287 286 286 286 287 287 287 288 288 289 290 291 291 291 289 290 288 289 288 287 289 289 289 288 287 288 289 289 289 288 287 286 285 285 285 288 287
290 290 290 290 290 290 291 290 289 289 289 289 289 290 290 291 291 290 290 290 289 289 289 289 289 288 288 287 287 287 287 287 287 287 287 288 287 286 286 286 286 287 287 286 286 287 288 287 288 288 287 287 286 286 290 288 287 288 288 288 288 287 287 288 286 287 288 287 287 284 284 284 285 287
289 290 290 290 290 290 290 289 289 289 289 289 289 289 288 288 289 289 288 288 289 288 289 288 288 288 287 287 287 287 286 286 286 286 286 286 286 286 286 286 286 287 287 286 287 286 287 287 287 286 284 284 283 281 282 289 290 287 286 284 286 285 286 286 287 287 287 286 286 285 283 282 283 286
288 288 289 289 290 290 289 289 289 289 289 289 289 289 288 287 287 288 288 288 289 288 289 288 287 287 287 287 286 286 286 286 285 286 285 286 286 286 285 285 286 286 286 286 286 287 288 287 287 287 285 284 282 281 281 283 286 289 287 285 284 285 284 285 285 284 286 286 286 285 284 283 283 284
288 288 288 288 289 289 288 289 288 288 288 289 289 288 288 288 287 288 288 288 288 288 287 287 287 287 287 286 286 286 286 286 286 285 285 286 285 285 286 285 285 286 286 286 287 288 288 287 287 288 286 285 284 281 280 283 283 285 289 286 283 283 284 283 283 283 284 285 285 285 284 283 283 284
289 288 288 288 288 288 287 288 288 288 288 288 288 287 287 287 287 287 287 287 287 287 287 287 286 287 286 287 286 286 286 285 285 285 285 285 286 285 286 285 286 287 286 287 286 287 287 286 286 286 286 285 284 283 283 283 282 283 285 289 286 283 283 283 283 283 283 283 283 285 284 285 287 288
286 287 288 288 288 288 288 288 287 287 287 287 287 287 287 287 287 287 287 286 286 287 287 286 286 286 286 286 286 286 286 286 285 285 285 285 285 286 286 286 286 286 285 285 285 284 285 285 285 285 285 285 286 287 286 285 284 283 284 286 288 286 283 283 283 282 282 283 284 282 282 283 282 283
285 285 286 287 288 288 287 287 287 287 287 287 287 287 287 287 287 286 286 286 286 286 286 286 286 286 286 286 286 286 285 285 286 286 286 286 285 285 285 285 285 286 285 284 283 283 282 283 284 285 286 286 287 288 285 283 281 281 282 283 287 287 288 288 285 283 282 284 283 282 282 281 281 281
285 285 285 286 286 286 286 286 286 286 286 286 286 286 286 286 286 286 286 286 286 286 286 286 285 285 286 286 286 286 285 285 285 285 285 285 285 285 285 285 285 285 284 283 282 282 283 284 285 287 287 286 285 284 283 283 282 282 283 283 284 287 287 287 287 288 286 283 282 282 282 281 281 280
285 285 285 285 285 285 286 285 285 285 285 286 286 286 286 286 286 286 285 285 285 285 285 285 285 286 286 286 286 286 285 285 285 285 286 285 285 285 285 286 285 284 283 282 282 283 284 286 287 286 286 285 285 284 283 283 283 283 283 282 283 283 283 287 287 287 286 287 287 285 283 282 280 278
285 284 285 285 285 285 285 285 285 285 285 285 285 285 285 285 285 285 285 285 285 285 285 285 285 285 285 285 285 285 285 285 285 285 285 285 286 286 285 284 284 283 283 283 284 284 285 286 286 285 285 284 284 283 283 284 283 283 282 283 284 284 283 283 283 284 285 285 285 286 286 286 286 286
284 284 284 285 285 285 285 285 285 285 285 285 285 285 285 285 284 284 285 285 285 285 285 285 285 285 285 285 285 284 284 285 285 285 285 285 285 285 285 284 284 284 284 285 285 284 284 285 285 285 285 284 284 283 284 284 283 283 283 283 283 283 284 284 284 283 284 284 285 285 285 285 285 285
Wind_Speed
8 7 9 10 10 11 10 10 11 11 11 11 10 10 11 10 11 10 9 8 6 4 6 7 5 7 7 6 7 7 6 10 12 8 9 11 11 19 22 21 20 20 18 17 16 15 14 14 15 16 16 16 15 15 14 13 13 12 11 10 9 8 6 4 2 1 1 1 2 3 3 4 5 6
8 8 9 9 9 10 10 9 10 11 11 11 12 11 11 11 13 11 11 10 6 5 5 2 6 7 4 7 6 5 6 11 10 7 8 10 10 18 19 20 20 19 18 17 14 14 15 16 16 16 16 15 15 14 13 13 12 12 11 10 10 9 7 5 4 3 1 1 0 1 2 3 5 6
8 8 9 8 9 9 10 11 10 10 11 12 11 11 11 11 12 11 9 10 6 5 5 4 6 2 3 5 5 6 7 9 7 6 8 10 15 19 16 19 19 18 18 17 16 15 17 17 17 17 16 15 15 14 13 12 12 12 11 10 9 9 7 5 4 3 3 1 1 1 2 3 5 7
9 9 8 7 7 8 9 9 10 11 11 11 11 12 12 11 11 9 10 11 11 3 4 5 6 1 5 6 5 5 7 7 3 6 7 10 16 12 11 17 19 18 17 18 18 17 17 17 17 16 16 15 15 14 13 13 12 12 11 10 10 9 8 6 4 4 3 2 2 1 3 3 5 7
10 9 10 10 8 7 10 9 9 10 11 12 12 11 12 12 11 11 11 12 12 5 3 4 4 3 2 3 8 8 6 6 6 6 5 10 10 9 8 7 12 16 17 16 18 18 18 18 17 17 16 16 15 14 13 13 12 12 11 10 9 8 8 7 6 3 2 2 2 2 4 4 5 7
9 10 11 12 10 8 7 8 11 10 10 10 10 10 11 11 11 11 11 12 11 12 3 4 5 6 10 7 8 10 9 6 6 8 6 5 7 10 6 5 6 12 14 16 17 18 18 17 17 16 16 15 15 14 14 13 12 12 11 10 9 8 8 7 6 5 4 3 3 3 4 5 6 8
11 11 11 11 11 9 9 8 8 9 11 10 12 12 11 13 13 12 14 12 12 12 10 7 7 7 11 11 10 11 9 8 8 9 8 7 5 5 6 6 5 10 13 15 15 16 16 16 16 16 16 15 15 15 13 13 12 12 11 10 9 8 7 5 4 4 3 4 4 5 5 5 7 8
12 12 11 11 11 11 10 9 9 8 8 10 10 11 11 12 13 12 11 15 13 11 11 9 8 6 10 9 10 9 10 10 9 8 8 6 7 6 5 6 6 8 12 14 15 15 16 16 16 16 15 15 14 14 13 13 12 12 11 10 9 9 8 6 5 4 5 5 5 5 6 6 7 9
13 13 13 13 12 12 12 10 9 8 10 10 11 11 11 12 13 11 12 13 13 12 12 9 7 8 8 8 10 12 11 9 8 8 8 8 7 7 5 4 6 10 11 13 15 15 15 15 15 16 16 15 15 15 14 13 12 12 11 10 10 9 8 7 7 6 6 5 5 7 7 7 8 9
13 13 14 14 13 13 13 11 10 10 11 10 10 12 10 8 8 10 10 9 10 14 13 10 7 9 11 10 6 11 11 12 10 9 8 8 8 9 7 4 5 5 6 5 6 9 10 13 15 15 15 15 15 14 14 13 13 12 12 11 10 10 9 8 8 7 7 7 7 6 8 8 9 9
14 14 14 14 14 14 13 13 12 11 11 10 10 9 11 11 11 8 9 10 12 12 13 9 10 10 8 10 11 10 10 9 11 13 11 8 7 7 9 9 6 6 6 5 8 8 9 11 9 12 14 15 15 14 14 14 13 13 13 12 11 10 10 9 9 8 8 8 8 7 7 8 9 10
14 14 14 15 15 14 13 13 12 12 12 10 10 8 8 10 10 10 10 11 10 10 11 10 9 9 10 6 7 9 11 10 8 10 12 14 12 10 8 8 10 8 7 7 6 7 9 9 9 12 11 13 14 13 13 13 13 14 13 13 12 11 11 10 9 9 9 9 8 8 8 7 7 9
14 15 14 14 15 16 18 21 18 15 13 10 10 7 5 8 10 10 10 10 11 10 9 10 9 9 9 10 11 11 12 14 15 12 10 9 9 9 8 7 7 8 10 8 7 7 8 8 7 7 6 7 10 10 11 10 15 14 13 13 13 12 12 11 11 10 10 9 9 8 8 7 8 8
14 15 14 14 20 20 20 19 20 21 20 19 14 11 10 9 7 8 10 10 10 11 12 11 7 10 12 12 13 14 14 10 8 11 12 12 11 9 7 6 6 9 10 10 9 7 7 7 7 6 6 7 9 7 8 7 9 12 14 14 13 13 12 12 11 11 10 10 10 9 8 8 7 8
14 13 14 14 16 17 19 18 21 22 24 22 22 21 17 13 12 9 8 10 10 11 11 10 11 12 14 15 13 13 12 11 14 14 12 11 12 13 14 13 7 8 11 11 10 8 8 8 8 8 8 8 8 8 8 12 14 14 15 14 14 14 13 12 11 11 10 11 10 9 9 8 8 9
13 14 14 13 12 13 15 15 15 18 22 24 23 22 22 21 19 16 13 10 8 8 11 11 12 11 10 11 13 12 12 12 11 11 12 12 15 13 12 11 14 12 15 12 11 10 8 8 8 8 9 9 9 10 12 16 15 16 16 16 16 15 14 13 12 11 11 10 10 9 8 8 8 9
15 14 13 13 12 12 17 16 15 14 14 17 23 25 24 24 22 22 19 17 14 10 10 11 11 13 13 12 13 13 15 13 13 12 12 12 13 13 13 12 9 10 15 11 9 10 10 10 9 9 8 8 8 9 12 16 16 17 17 17 16 15 14 13 12 11 11 10 10 9 9 8 8 9
15 15 15 14 13 13 14 14 15 14 14 15 14 15 18 18 22 23 23 22 19 16 13 12 13 10 12 14 13 14 14 17 17 17 16 14 13 14 15 11 8 9 13 15 11 8 9 11 9 9 8 8 9 9 13 17 18 18 18 17 16 15 14 13 12 12 11 11 10 10 9 8 9 11
16 16 16 16 16 14 13 14 16 14 13 13 14 15 14 16 17 17 18 17 14 12 12 13 12 10 11 13 13 12 14 18 18 19 20 21 17 10 6 6 8 10 11 9 9 11 9 9 9 8 8 8 9 8 11 17 18 18 17 16 15 15 14 13 13 12 11 11 10 9 9 9 10 12
16 16 17 17 16 17 16 17 20 20 17 14 14 13 13 14 13 14 15 18 17 15 14 14 14 12 11 16 14 11 14 14 9 6 6 8 9 11 10 9 9 11 12 12 10 6 8 10 10 8 6 7 6 5 5 12 16 16 15 15 15 14 13 13 12 12 11 10 10 10 10 11 12 13
15 15 16 16 16 16 16 17 18 21 22 17 17 15 14 13 13 13 12 15 19 21 22 21 22 21 18 14 13 16 16 13 14 11 12 13 13 12 11 7 9 10 11 10 9 5 8 9 8 7 7 8 7 7 6 6 11 15 15 14 14 13 13 13 12 12 12 12 11 12 12 12 13 14
15 16 23 22 18 17 17 16 17 20 19 17 17 16 14 14 14 11 2 3 3 3 14 20 21 22 18 19 22 21 18 19 17 16 16 15 14 13 13 13 10 8 9 10 7 7 8 9 8 8 4 7 5 7 7 7 8 11 11 14 14 13 13 13 13 13 13 13 13 13 13 13 12 7
15 15 16 22 21 19 18 18 18 19 18 17 16 15 13 14 14 10 5 5 5 5 7 5 8 7 14 13 12 14 22 24 21 17 17 15 16 15 12 10 9 7 7 9 9 8 8 11 10 10 8 5 4 7 8 8 7 7 7 7 9 12 14 14 14 14 13 13 13 13 13 13 9 6
15 15 15 16 20 22 21 20 21 21 21 19 16 12 12 12 12 6 5 6 7 7 8 8 8 10 10 11 12 9 11 12 12 6 3 11 13 14 14 14 14 13 11 10 12 8 6 9 9 7 6 7 6 5 6 7 8 8 7 7 7 11 14 13 11 14 13 13 14 13 13 12 10 5
13 13 13 13 16 19 20 21 23 24 25 25 20 16 12 14 9 10 4 4 10 8 6 6 6 7 7 9 11 12 11 11 7 6 11 13 11 11 14 13 11 5 5 11 16 7 6 9 9 6 7 5 5 7 6 7 7 8 9 9 9 7 7 8 7 7 9 13 14 15 12 13 14 9
13 13 13 13 16 20 20 20 22 25 25 27 20 22 23 19 18 13 7 4 6 8 8 7 6 6 8 9 9 9 9 7 6 8 8 5 2 1 7 14 14 9 7 10 14 7 10 10 10 9 7 7 7 9 8 6 7 9 9 9 8 8 9 8 7 7 6 6 8 10 12 16 17 16
13 13 14 15 19 19 20 20 22 23 26 24 21 27 24 22 21 14 8 4 6 7 7 8 8 6 7 10 10 10 9 7 5 4 5 6 5 7 7 7 4 8 11 13 10 7 9 8 8 8 9 6 6 9 9 9 7 8 9 10 9 8 8 7 7 8 7 8 8 12 14 15 16 14
15 15 15 15 20 20 21 23 22 22 23 19 24 24 25 24 17 10 9 7 7 8 8 8 8 8 6 5 8 9 8 7 8 7 6 7 8 9 9 9 9 10 12 12 9 6 6 8 6 4 8 8 7 9 8 7 7 11 10 7 6 8 8 8 5 4 2 1 3 5 4 5 6 7
16 18 22 22 21 21 21 24 24 22 23 26 24 24 23 18 10 11 10 9 8 9 10 9 8 8 7 6 5 7 8 9 9 9 8 8 9 10 10 9 7 7 7 8 7 4 1 3 6 7 6 5 6 9 10 7 9 9 7 8 4 4 6 5 5 3 3 3 2 3 1 1 3 1
24 25 26 27 24 21 21 16 10 10 13 19 22 23 19 11 12 10 10 9 10 10 9 9 10 8 7 8 8 8 9 9 8 9 9 10 9 9 11 11 9 7 7 7 5 1 0 6 5 7 6 1 2 4 6 10 6 6 7 7 6 5 4 6 5 4 6 5 4 2 2 3 3 1
18 22 24 20 20 19 21 18 14 13 14 15 14 11 11 11 11 10 11 11 11 10 10 9 8 8 8 9 10 9 9 9 7 7 10 11 9 9 9 12 9 8 8 6 5 5 4 5 5 4 6 4 5 4 6 8 8 6 6 6 6 3 3 5 4 7 5 5 2 3 2 1 2 1
14 14 16 20 17 15 13 12 10 11 11 10 9 9 11 10 9 10 11 8 7 8 9 10 10 9 9 10 9 9 8 9 8 7 9 11 10 9 10 11 9 9 8 7 7 7 7 7 7 6 5 6 5 3 5 6 7 7 6 5 5 4 5 6 8 6 5 3 1 2 1 1 2 3
12 11 11 10 12 11 10 8 7 7 7 8 9 11 10 8 9 9 10 10 10 11 12 12 12 11 10 9 9 9 9 8 9 7 10 10 12 8 8 11 10 10 11 8 6 8 7 7 7 9 9 9 7 5 4 4 6 7 7 5 5 4 5 7 7 6 4 2 1 0 1 1 1 3
10 8 8 8 9 9 8 8 6 5 5 6 6 6 9 9 9 9 8 9 10 9 11 12 12 12 12 11 11 11 11 9 8 7 10 10 10 12 12 12 9 8 9 9 7 6 6 6 7 9 9 8 9 9 7 5 4 6 7 6 5 5 6 7 6 5 3 1 1 1 1 2 3 5
8 6 7 7 7 8 8 8 7 6 5 3 7 7 6 6 9 10 10 10 10 10 10 10 11 12 12 12 11 12 12 12 11 9 6 8 9 11 12 12 11 10 10 10 9 6 6 6 7 7 7 6 6 5 9 7 5 6 7 7 6 7 6 6 6 4 1 1 1 2 1 3 5 4
3 5 6 7 7 7 8 7 7 7 7 6 7 8 8 7 7 10 10 10 12 11 11 11 11 11 11 11 11 11 12 12 11 11 10 9 10 10 8 9 9 10 10 11 10 7 7 6 7 8 7 4 4 4 3 9 8 4 7 4 6 7 5 5 3 0 0 3 3 4 4 3 3 3
4 2 1 2 4 7 7 7 7 7 7 8 7 8 9 9 7 7 10 12 11 11 12 13 12 12 11 11 11 10 11 13 13 11 10 10 11 10 10 9 9 9 11 11 9 7 6 6 6 7 8 7 7 6 2 2 8 10 5 8 5 6 4 1 1 3 3 5 6 5 4 3 1 3
5 5 5 4 3 1 2 3 5 6 6 6 7 7 7 8 8 8 8 9 11 10 11 11 11 12 12 12 13 11 10 9 10 12 11 11 12 11 11 11 10 10 12 11 10 8 7 7 7 7 8 8 7 7 4 1 2 6 9 7 7 4 4 5 5 5 5 5 6 4 4 3 2 2
7 6 5 5 4 4 4 3 3 3 3 5 6 8 9 9 10 10 9 8 9 11 11 11 11 12 13 12 11 13 13 12 11 11 12 11 11 11 11 10 11 11 12 11 9 7 5 6 6 6 6 6 9 9 8 7 4 2 7 9 6 6 4 5 6 5 5 6 5 4 3 1 5 8
6 6 6 5 5 5 5 5 5 4 4 4 5 6 8 10 10 11 11 10 10 10 11 11 12 12 10 11 11 10 10 11 12 11 11 11 10 10 10 10 12 12 11 10 10 8 8 6 6 7 7 7 8 9 8 8 5 3 4 7 7 7 4 4 4 4 4 2 1 2 4 5 5 4
7 7 6 4 5 5 5 5 5 5 6 6 6 6 6 7 8 8 9 10 10 11 11 10 11 11 11 11 10 11 12 10 10 10 10 10 10 10 12 13 12 10 11 10 9 8 8 7 4 5 6 6 9 10 9 8 6 3 2 1 2 5 6 6 4 4 2 0 2 3 5 3 3 3
7 6 6 6 5 4 5 6 6 6 6 6 7 7 7 7 7 11 11 11 10 10 10 11 11 10 10 9 9 9 10 11 11 10 9 9 10 11 14 12 12 10 11 10 9 8 5 3 3 4 5 6 5 6 7 8 7 5 4 1 1 3 3 2 2 4 3 2 3 2 1 2 2 2
7 6 5 6 6 6 6 6 6 6 6 6 7 7 8 8 9 10 9 10 9 10 10 10 10 10 10 9 8 8 9 10 10 9 8 8 8 10 10 10 11 11 11 10 8 7 5 4 3 4 3 6 6 7 9 8 7 6 4 3 2 2 2 4 5 5 1 2 3 3 2 1 1 3
6 6 6 6 6 7 6 6 7 6 7 7 7 7 8 8 9 9 9 9 10 10 10 10 10 9 8 9 9 9 8 9 9 10 9 7 6 8 10 11 12 11 11 10 8 6 5 4 3 5 8 7 5 6 8 9 8 7 5 4 2 1 3 2 3 6 1 5 6 6 6 6 6 7
6 6 7 7 7 7 7 7 7 7 8 8 7 8 8 8 9 9 9 9 9 10 10 10 10 9 9 9 10 10 8 8 9 8 8 8 8 9 10 11 11 11 10 9 9 7 5 7 8 8 8 7 6 6 7 8 7 5 3 3 3 4 4 2 0 2 1 1 6 9 9 7 7 8
Wind_Direction
261 251 224 217 227 232 229 224 220 220 222 225 228 225 226 220 235 243 242 226 198 167 188 263 225 202 176 168 125 137 144 151 154 157 157 160 167 169 166 168 168 165 170 168 169 167 159 149 142 143 142 139 138 137 137 136 133 131 130 128 124 121 118 111 109 119 106 41 42 27 358 346 339 327
260 253 247 224 219 223 225 231 229 224 220 220 222 224 225 219 228 229 237 246 197 184 133 168 277 244 228 142 138 114 133 157 154 149 153 159 164 167 165 166 167 165 166 165 164 154 147 144 143 142 141 141 141 141 141 141 140 137 138 138 136 138 145 161 174 179 151 188 211 31 346 336 323 316
279 262 252 239 224 214 216 214 219 226 223 220 220 225 221 227 226 228 237 250 239 161 161 144 252 285 206 131 138 117 128 164 157 137 150 164 160 162 166 166 168 166 166 160 155 150 147 146 145 144 145 144 143 145 144 142 145 142 143 145 146 149 155 170 185 197 186 202 268 337 332 318 312 309
270 274 270 254 229 214 221 219 214 217 221 222 223 221 223 227 226 223 229 237 246 205 130 161 183 142 197 170 123 107 135 160 128 146 155 149 150 160 166 170 167 167 163 158 153 151 149 149 148 147 146 147 147 148 150 148 149 148 149 153 158 157 162 174 184 205 196 217 261 292 306 303 305 308
291 290 285 277 261 232 220 215 215 212 210 215 223 224 226 223 219 221 226 237 248 253 144 143 176 143 229 201 126 132 136 107 81 70 115 140 153 153 143 122 165 162 157 156 152 152 151 151 151 149 148 149 150 149 151 152 151 153 155 161 160 157 171 178 183 197 211 230 250 265 283 295 298 301
290 289 290 292 286 275 255 225 223 216 215 214 214 223 226 229 227 215 224 229 235 240 198 201 199 168 175 181 144 144 147 120 115 118 122 144 142 155 131 121 145 161 156 154 155 154 154 151 148 148 150 151 150 151 153 154 155 156 158 160 159 164 173 180 181 192 210 235 252 267 276 285 293 295
281 284 285 287 288 281 273 262 233 221 221 220 224 220 217 224 223 216 216 220 225 229 227 200 196 174 177 178 159 155 148 133 134 135 144 141 125 111 132 123 127 159 155 154 155 150 148 149 150 151 153 153 153 152 155 155 157 157 158 161 161 161 157 157 172 187 208 238 249 256 272 282 286 288
275 276 280 278 281 284 276 270 265 243 223 222 227 227 221 222 227 224 218 217 218 213 222 205 193 174 163 177 152 151 144 140 136 139 140 130 130 128 121 123 127 152 155 152 152 151 152 152 152 153 154 155 154 153 157 159 160 162 164 166 167 164 162 164 174 193 214 237 252 262 268 274 278 285
269 271 271 275 275 279 280 273 268 265 247 229 226 230 224 218 220 219 214 217 218 215 215 205 187 167 174 171 166 151 145 140 134 141 147 144 133 128 122 112 115 129 145 153 154 155 154 155 154 154 155 156 157 157 159 163 164 167 169 171 172 172 172 176 183 197 217 228 244 256 265 272 279 286
263 266 268 268 268 266 266 267 267 267 264 247 225 227 230 235 232 224 219 224 230 219 214 193 173 176 171 177 156 152 151 150 145 143 151 144 148 139 127 117 127 142 153 153 147 144 149 155 156 156 157 159 159 160 161 167 171 172 173 173 175 178 179 186 193 203 215 223 231 243 259 270 280 288
262 261 262 265 265 265 264 264 261 261 265 263 250 226 222 220 222 229 238 227 220 225 217 197 177 176 189 174 159 162 152 147 156 158 153 152 152 147 150 148 149 159 145 126 142 152 153 154 156 160 160 161 164 165 167 172 173 177 178 178 181 184 187 193 199 208 217 226 230 238 246 262 277 288
261 260 261 260 262 264 266 267 265 258 257 263 264 247 227 223 218 209 212 228 236 220 224 211 188 182 176 179 150 145 149 154 169 177 164 162 164 167 164 162 158 156 150 152 158 144 137 148 147 155 161 167 167 169 171 175 177 180 182 181 185 188 192 198 205 210 220 227 234 237 244 251 265 281
260 259 255 255 255 258 263 267 272 277 281 270 265 267 255 239 228 221 209 211 216 225 218 222 207 185 179 178 158 163 175 180 181 164 164 164 164 151 147 159 166 165 156 155 158 167 166 154 159 161 162 172 167 174 177 182 185 184 186 187 189 193 196 201 207 213 221 230 236 241 245 253 263 270
258 256 258 257 254 254 255 257 265 272 273 272 265 259 261 267 264 243 233 222 213 211 217 224 202 193 189 180 178 174 184 175 141 155 172 161 158 142 142 145 178 168 162 161 170 171 168 160 158 169 171 168 177 178 186 186 184 190 190 191 193 196 199 204 207 213 221 228 237 242 245 251 260 266
275 275 265 258 257 257 259 259 257 262 268 265 268 266 252 243 245 260 246 244 234 230 222 201 193 200 199 187 178 178 173 173 171 173 169 158 158 168 163 177 172 186 171 172 168 171 177 172 172 181 184 174 171 187 190 187 186 187 192 195 197 199 202 204 207 212 219 228 237 244 250 257 264 271
263 264 267 269 269 260 257 258 253 248 250 258 258 258 262 256 243 227 235 245 243 233 238 224 204 188 203 195 182 176 174 176 172 173 170 168 173 174 185 176 184 184 172 166 173 178 173 183 181 187 195 181 182 194 184 189 187 186 190 197 198 201 204 205 207 211 218 226 234 243 251 257 263 269
257 261 264 265 262 267 267 260 256 258 259 248 245 249 252 255 254 253 237 227 235 235 230 238 225 200 188 194 202 186 179 169 170 167 177 180 184 188 187 188 173 160 173 162 172 180 178 180 183 193 195 183 179 194 191 189 191 186 190 195 198 201 204 206 208 211 217 225 232 241 249 256 265 268
258 256 257 260 261 259 266 269 266 256 250 258 255 239 236 241 248 248 249 239 228 226 231 230 238 223 197 195 192 192 178 173 176 178 185 180 182 187 198 184 158 153 169 177 169 165 175 184 180 195 186 190 183 193 191 188 191 188 189 192 195 200 204 206 208 212 217 224 232 240 248 259 264 266
261 261 259 258 258 260 260 260 268 274 265 252 250 246 232 230 233 238 240 240 230 220 224 229 230 227 201 200 196 190 186 185 185 183 181 183 182 163 101 95 137 155 178 175 167 187 170 171 185 194 180 181 183 185 187 187 188 185 185 188 193 200 204 205 209 213 217 224 233 242 249 255 260 263
254 254 254 256 256 255 255 258 266 273 279 287 290 285 269 243 232 229 229 231 230 220 216 218 222 218 204 198 195 190 183 182 153 112 86 107 132 147 154 153 160 166 182 186 179 162 165 173 180 177 176 151 152 146 156 182 176 177 181 186 194 201 203 207 210 214 219 225 232 241 247 251 256 261
260 254 254 254 255 253 252 251 258 268 276 279 281 280 278 279 253 237 233 229 227 221 214 207 204 208 200 178 173 191 182 163 167 159 153 163 160 157 158 153 160 178 174 190 188 150 151 172 168 162 188 142 146 155 162 167 176 175 182 189 197 201 204 210 213 217 221 224 230 238 243 248 253 260
261 256 253 254 253 252 252 249 250 257 265 270 271 273 276 275 276 258 158 74 23 271 224 210 195 190 175 169 179 179 173 163 158 163 176 175 167 173 168 168 172 155 177 187 174 149 171 156 162 161 156 108 161 162 168 167 176 183 189 196 198 202 208 213 217 220 221 224 230 237 241 244 248 263
261 258 255 249 249 249 253 251 250 253 259 263 265 274 273 267 270 267 160 147 128 116 111 123 149 159 165 162 170 182 175 172 176 180 183 169 176 171 167 147 130 133 198 198 185 168 161 162 169 167 148 149 166 181 161 167 167 177 191 201 206 212 213 217 220 222 223 223 230 237 242 245 246 252
254 254 254 250 243 243 245 247 249 252 255 259 262 267 272 273 264 273 178 177 156 152 152 159 166 162 158 156 160 167 187 188 180 175 174 188 180 164 158 162 169 173 177 183 181 170 147 153 170 182 162 142 157 167 155 166 176 182 190 192 199 218 216 222 230 230 228 228 231 236 241 247 241 238
253 251 250 249 244 238 235 235 239 242 245 251 257 254 245 251 298 316 230 171 145 130 129 133 139 138 143 151 159 165 170 172 173 169 180 185 191 174 162 166 171 141 157 169 168 149 149 156 162 152 147 144 133 138 188 169 179 185 192 195 203 204 191 212 219 226 228 230 234 236 239 244 242 223
247 248 250 251 246 239 234 231 230 233 237 240 243 248 247 250 263 282 284 177 141 134 135 135 133 141 147 149 154 156 155 147 147 158 167 164 168 192 177 170 164 148 158 167 157 142 132 164 182 160 153 162 169 144 152 189 184 190 191 200 200 191 183 198 204 221 212 207 219 227 227 234 243 233
251 249 249 249 244 237 235 233 231 230 232 234 236 242 245 242 244 248 245 205 157 148 145 141 142 156 159 154 158 157 150 138 125 98 99 99 92 84 69 50 70 132 144 156 159 141 145 157 178 174 157 177 141 155 157 169 184 184 191 202 192 177 184 182 194 210 196 185 208 211 212 229 239 240
254 252 248 246 241 235 233 236 236 233 232 232 235 237 238 237 229 222 228 199 173 153 148 148 149 158 163 146 151 152 140 127 112 100 85 85 93 89 81 87 103 127 143 154 146 127 107 146 166 161 155 180 141 159 169 193 152 167 180 184 166 170 178 178 171 144 157 145 93 143 169 217 225 232
252 250 250 248 242 236 233 235 235 234 234 233 232 232 233 227 209 213 201 194 162 160 160 161 157 151 152 139 117 97 101 104 99 94 84 80 81 85 86 85 89 104 130 134 130 116 105 145 150 154 168 211 172 176 182 164 149 168 164 153 177 166 148 145 138 129 113 88 92 71 24 343 293 232
249 247 244 243 242 238 238 243 249 249 245 238 232 230 224 205 209 192 186 177 174 163 159 152 153 144 123 115 116 115 113 109 116 119 113 109 97 100 105 94 76 79 97 121 126 120 186 153 145 146 152 159 158 152 131 128 126 138 135 140 133 114 132 132 131 119 93 81 57 26 285 261 249 196
250 247 242 237 233 232 238 245 262 271 262 248 228 218 204 202 192 179 175 181 171 158 142 135 124 124 117 113 116 126 121 112 112 117 124 115 115 112 111 107 106 83 60 53 54 72 69 83 98 111 127 102 65 63 96 114 127 127 117 113 109 116 152 127 112 90 89 71 38 286 288 340 345 360
246 241 233 228 226 231 240 251 260 262 254 224 202 191 193 187 168 159 162 154 144 131 134 126 124 119 128 128 127 121 116 116 119 126 117 121 119 121 121 108 108 99 85 70 59 48 54 61 69 65 88 100 99 53 60 91 123 129 114 108 109 124 113 106 95 90 89 93 330 327 322 68 12 353
251 234 223 207 213 215 224 229 229 245 212 193 187 178 168 150 140 140 141 143 139 139 136 141 139 137 129 125 120 121 117 122 125 127 117 122 124 117 107 114 118 115 116 108 84 65 64 67 64 72 71 59 49 46 81 76 68 103 123 121 107 96 97 87 93 90 69 63 8 2 338 1 359 66
239 210 200 196 195 197 194 197 195 212 225 158 137 144 145 143 142 140 134 132 137 140 141 139 137 137 136 133 138 134 131 125 122 128 130 133 131 126 127 123 120 118 114 113 108 99 84 72 73 67 72 72 62 53 49 66 101 104 107 116 107 96 84 82 75 85 93 146 197 346 31 338 27 60
199 186 175 177 175 185 184 181 185 175 182 161 130 128 122 121 135 136 135 137 136 138 135 136 134 138 139 142 144 142 140 135 131 127 119 119 118 120 126 127 135 137 130 119 115 118 109 104 94 86 65 66 65 37 45 45 70 66 76 62 76 80 70 68 63 51 36 298 97 67 1 31 24 18
180 174 172 167 176 173 179 181 168 170 166 162 142 128 119 123 131 137 138 144 140 138 138 136 137 137 139 140 143 141 139 134 135 137 138 132 123 116 118 132 141 143 136 127 124 127 123 127 122 116 119 110 101 84 23 14 35 72 83 77 60 67 63 58 55 309 22 46 56 84 75 42 8 352
49 41 41 188 172 175 177 171 168 165 166 159 152 142 137 137 142 141 143 143 140 144 144 141 141 143 141 141 138 141 141 141 141 143 136 130 123 132 138 149 153 152 129 119 119 122 136 142 140 129 131 127 131 129 75 318 20 28 84 88 71 65 70 58 356 20 44 72 50 64 63 29 319 343
36 54 57 46 40 42 93 137 151 154 155 152 141 131 124 125 121 124 134 135 137 135 137 139 139 140 142 144 143 142 142 138 138 140 140 138 142 146 153 150 155 143 123 126 132 145 156 156 160 166 154 156 144 135 132 350 21 10 22 83 91 66 57 53 49 60 28 47 53 21 12 12 346 355
22 32 47 59 54 58 66 69 96 116 120 129 135 136 133 131 133 134 136 135 136 136 135 135 140 143 143 147 147 146 145 147 146 144 141 145 146 150 152 151 137 125 119 124 128 127 104 84 87 93 105 127 147 159 145 134 108 126 16 39 96 81 65 79 71 52 58 43 3 348 321 7 31 10
27 38 33 38 49 55 59 66 77 88 92 87 98 116 132 136 140 140 137 139 140 137 136 136 136 136 137 142 144 141 137 139 140 139 141 142 148 151 149 138 126 120 118 110 95 91 94 96 97 107 106 103 113 116 119 105 102 70 56 31 56 114 120 100 91 82 60 46 353 8 1 25 8 328
20 34 29 42 65 69 66 63 73 83 89 90 99 106 112 125 129 133 136 137 139 136 133 132 135 137 140 143 147 145 140 140 137 134 135 141 149 149 133 123 114 112 104 98 104 99 106 130 139 126 113 115 102 102 90 89 101 132 120 160 358 71 101 112 123 114 124 4 29 42 50 17 349 338
22 21 20 24 39 48 65 78 79 86 95 102 106 106 107 107 107 113 114 117 118 119 124 129 131 131 132 133 132 135 135 136 137 135 138 139 140 136 126 117 114 110 110 114 116 118 136 131 135 112 118 116 125 117 123 130 139 156 158 160 296 317 343 7 99 137 142 116 86 62 20 345 16 17
23 24 24 37 49 56 66 71 75 78 88 92 100 104 107 110 114 116 118 120 121 121 125 124 126 127 126 124 122 123 126 127 126 125 127 131 136 132 117 107 105 105 106 106 105 117 133 145 126 114 95 72 74 92 105 121 125 123 123 143 214 266 294 294 280 266 109 54 133 162 167 150 80 350
24 31 40 44 55 58 60 66 72 75 84 86 94 101 105 110 109 112 117 119 120 121 121 123 123 118 115 113 116 115 114 120 119 120 122 119 111 100 101 102 103 106 107 109 116 125 137 131 116 91 81 78 79 81 95 95 98 112 129 146 163 140 147 225 302 308 317 172 237 239 224 200 197 217
22 35 42 50 56 60 62 66 70 77 82 86 87 92 95 96 100 102 105 108 110 110 110 111 110 108 103 107 112 110 104 90 92 89 92 95 99 100 100 106 110 110 111 123 126 126 116 100 88 83 84 85 85 93 94 101 108 105 106 102 92 76 101 119 187 282 347 56 227 219 234 234 246 270